This is the latest recevied weather packets stored in our database for station/object KB8TTR. If no packets are shown the sender has not sent any weather packets the latest 10 day(s).
| Time | Temp. | Humidity | Pressure | Rain* | Wind** | Luminosity | Snow |
|---|---|---|---|---|---|---|---|
| 1788463390 | 32.22° C | 69% | 1014.3 hPa | 0 mm | - | 754 W/m² | - |
| 1788463087 | 32.78° C | 68% | 1014.7 hPa | 0 mm | - | 194 W/m² | - |
| 1788462782 | 32.78° C | 67% | 1014.9 hPa | 0 mm | - | 728 W/m² | - |
| 1788462482 | 32.22° C | 69% | 1014.9 hPa | 0 mm | - | 788 W/m² | - |
| 1788462176 | 32.22° C | 68% | 1015 hPa | 0 mm | - | 273 W/m² | - |
| 1788461871 | 32.78° C | 67% | 1015.1 hPa | 0 mm | - | 298 W/m² | - |
| 1788461570 | 32.78° C | 66% | 1014.9 hPa | 0 mm | - | 288 W/m² | - |
| 1788461267 | 32.78° C | 67% | 1015.3 hPa | 0 mm | - | 368 W/m² | - |
| 1788460963 | 32.22° C | 69% | 1015 hPa | 0 mm | - | 869 W/m² | - |
| 1788460658 | 32.22° C | 68% | 1015.2 hPa | 0 mm | - | 349 W/m² | - |
| 1788460352 | 32.78° C | 67% | 1015.1 hPa | 0 mm | - | 332 W/m² | - |
| 1788460051 | 33.89° C | 64% | 1015.2 hPa | 0 mm | - | 405 W/m² | - |
| 1788459746 | 35° C | 54% | 1015.1 hPa | 0 mm | - | 855 W/m² | - |
| 1788459445 | 34.44° C | 55% | 1015.1 hPa | 0 mm | - | 817 W/m² | - |
| 1788459140 | 34.44° C | 61% | 1015.1 hPa | 0 mm | - | 707 W/m² | - |
| 1788458836 | 34.44° C | 57% | 1015.4 hPa | 0 mm | - | 368 W/m² | - |
| 1788458536 | 34.44° C | 58% | 1015.2 hPa | 0 mm | - | 835 W/m² | - |
| 1788458235 | 34.44° C | 60% | 1015.1 hPa | 0 mm | - | 694 W/m² | - |
| 1788457935 | 35° C | 58% | 1015.2 hPa | 0 mm | - | 762 W/m² | - |
| 1788457634 | 35° C | 57% | 1015.4 hPa | 0 mm | - | 792 W/m² | - |
| 1788457330 | 35° C | 58% | 1015.4 hPa | 0 mm | - | 847 W/m² | - |
| 1788457030 | 34.44° C | 59% | 1015.6 hPa | 0 mm | - | 769 W/m² | - |
| 1788456726 | 33.89° C | 61% | 1015.7 hPa | 0 mm | - | 874 W/m² | - |
| 1788456420 | 33.33° C | 61% | 1015.7 hPa | 0 mm | - | 877 W/m² | - |
| 1788456115 | 33.89° C | 61% | 1015.5 hPa | 0 mm | - | 394 W/m² | - |
* Rain latest hour (hover to see other rain measurements)
** Current wind speed in m/s (hover to see current wind gust speed)